Weather in Muzaffarpur

India     26°06′59″N   85°23′15″E
temp.,
°C
wind,
m/s
gust,
m/s
humid.,
%
clouds,
%
prec.,
mm/h
press.,
hPa
HPBL,
m
23 january, sat
sat2323:30+14nw22500 0.0 101323
02:30+13nnw23570 0.0 101223
05:30+11w12630 0.0 101223
08:30+15wsw23550 0.0 1014193
11:30+23s11360 0.0 1014851
14:30+24ssw21330 0.0 10111389
17:30+19sse12450 0.0 101123
20:30+15sw11520 0.0 101423
24 january, sun
sun2423:30+14wnw11570 0.0 101323
02:30+13nne23640 0.0 101223
05:30+12ese12700 0.0 101223
08:30+18ese23520 0.0 1014191
11:30+24ese22370 0.0 1015950
14:30+27ese22280 0.0 10121216
17:30+21ene22400 0.0 101123
20:30+17ene00510 0.0 101423
25 january, mon
mon2523:30+16nnw12550 0.0 101423
02:30+13n00660 0.0 101323
05:30+13e22610 0.0 101223
08:30+19wnw00510 0.0 1017135
11:30+25e22360 0.0 1015731
14:30+28wsw12270 0.0 10121564
17:30+21w22370 0.0 101323
20:30+17nnw23440 0.0 101523
26 january, tue
tue2623:30+16nw23480 0.0 101323
02:30+14nnw23570 0.0 101323
05:30+11wsw11580 0.0 101423
08:30+17wsw22440 0.0 1016154
11:30+25ne11360 0.0 1015752
14:30+27wnw23250 0.0 10121826
17:30+20wnw34350 0.0 101224
20:30+17nw23400 0.0 101323
27 january, wed
wed2723:30+15nw34550 0.0 101434
02:30+13nnw23480 0.0 101223
05:30+11nw11550 0.0 101323
08:30+17wnw22510 0.0 1016182
11:30+25ene21300 0.0 1015805
14:30+27wnw12260 0.0 10121399
17:30+19nw22300 0.0 101323
20:30+15nw23370 0.0 101523